Weather History for KGFL - February, 2013

Change the Weather History Date:

Wednesday, February 6, 2013

  Actual Average Record
Temperature  
Mean Temperature 24 °F 19 °F  
Max Temperature 35 °F 31 °F 50 °F (2012)
Min Temperature 13 °F 8 °F -20 °F (2015)
Degree Days  
Heating Degree Days 41 46  
Month to date heating degree days 282 277  
Since 1 July heating degree days 4227 4673  
Cooling Degree Days 0 0  
Month to date cooling degree days 0 0  
Year to date cooling degree days 0 0  
Moisture  
Dew Point 8 °F    
Average Humidity 52    
Maximum Humidity 84    
Minimum Humidity 20    
Precipitation  
Precipitation T in 0.08 in 0.80 in (2008)
Month to date precipitation T 0.47  
Year to date precipitation 1.28 3.33  
Sea Level Pressure  
Sea Level Pressure 30.09 in    
Wind  
Wind Speed 6 mph (West)    
Max Wind Speed 20 mph    
Max Gust Speed 26 mph    
Visibility 9 miles    
Events Snow    
T = Trace of Precipitation, MM = Missing Value Source: NWS Daily Summary

Daily Weather History Graph

Daily Weather History Graph

Search for Another Location

Airport or City:

Trip Planner

Search our weather history database for the weather conditions in past years. The results will help you decide how hot, cold, wet, or windy it might be!

Date:

Astronomy

Feb. 06, 2013 Rise Set
Actual Time 7:04 AM EST 5:13 PM EST
Civil Twilight 6:34 AM EST 5:43 PM EST
Nautical Twilight 6:00 AM EST 6:17 PM EST
Astronomical Twilight 5:27 AM EST 6:50 PM EST
Moon 3:48 AM EST (2/6) 1:25 PM EST (2/6)
Length of Visible Light 11h 09m
Length of Day
10h 09m
Waning Crescent, 17% of the Moon is Illuminated
Feb 6
Waning Crescent
Feb 10
New
Feb 17
First Quarter
Feb 25
Full
Mar 4
Last Quarter

Hourly Weather History & Observations

Time (EST) Temp. Windchill Dew Point Humidity Pressure Visibility Wind Dir Wind Speed Gust Speed Precip Events Conditions
12:10 AM 21.2 °F - 12.2 °F 68% 29.90 in 10.0 mi Calm Calm - N/A   Overcast
12:53 AM 19.9 °F - 10.0 °F 65% 29.93 in 10.0 mi Calm Calm - N/A   Overcast
1:53 AM 19.9 °F - 10.9 °F 68% 29.93 in 10.0 mi Calm Calm - N/A   Overcast
2:53 AM 21.0 °F - 12.9 °F 71% 29.92 in 6.0 mi Calm Calm - 0.00 in Snow Light Snow
3:53 AM 18.0 °F - 12.9 °F 81% 29.92 in 10.0 mi Calm Calm - 0.00 in   Mostly Cloudy
4:53 AM 19.0 °F - 12.9 °F 77% 29.95 in 10.0 mi Calm Calm - N/A   Overcast
5:53 AM 19.9 °F - 15.1 °F 81% 29.96 in 9.0 mi Calm Calm - N/A   Overcast
6:53 AM 19.0 °F - 15.1 °F 85% 29.98 in 7.0 mi Calm Calm - N/A   Overcast
7:53 AM 23.0 °F 13.9 °F 17.6 °F 80% 29.95 in 7.0 mi SSW 8.1 mph - N/A   Overcast
8:53 AM 25.0 °F 16.3 °F 18.0 °F 75% 30.00 in 7.0 mi SSW 8.1 mph - N/A   Overcast
9:53 AM 26.1 °F 17.6 °F 19.9 °F 78% 30.02 in 8.0 mi SSW 8.1 mph - 0.00 in   Overcast
10:53 AM 30.9 °F 22.2 °F 21.0 °F 67% 30.02 in 10.0 mi SSW 10.4 mph - N/A   Overcast
11:53 AM 32.0 °F 24.2 °F 21.0 °F 64% 30.03 in 10.0 mi WSW 9.2 mph 19.6 mph 0.00 in   Overcast
12:53 PM 34.0 °F 23.8 °F 8.1 °F 34% 30.05 in 10.0 mi West 16.1 mph 23.0 mph N/A   Mostly Cloudy
1:53 PM 33.1 °F 24.9 °F 5.0 °F 31% 30.06 in 10.0 mi WSW 10.4 mph - N/A   Partly Cloudy
2:53 PM 34.0 °F 25.5 °F 1.9 °F 26% 30.09 in 10.0 mi West 11.5 mph - N/A   Clear
3:53 PM 32.0 °F 22.5 °F -5.1 °F 20% 30.13 in 10.0 mi WNW 12.7 mph 19.6 mph N/A   Clear
4:53 PM 30.0 °F 22.4 °F -4.0 °F 23% 30.17 in 10.0 mi West 8.1 mph - N/A   Clear
5:53 PM 27.0 °F 18.7 °F -0.9 °F 30% 30.21 in 10.0 mi West 8.1 mph 24.2 mph N/A   Clear
6:53 PM 25.0 °F 16.3 °F -0.0 °F 34% 30.27 in 10.0 mi WNW 8.1 mph - N/A   Clear
7:53 PM 23.0 °F 15.8 °F -0.0 °F 37% 30.30 in 10.0 mi WNW 5.8 mph - N/A   Clear
8:53 PM 19.9 °F 11.1 °F -2.0 °F 38% 30.34 in 10.0 mi North 6.9 mph - N/A   Clear
9:53 PM 19.0 °F 11.1 °F -2.9 °F 38% 30.37 in 10.0 mi NNW 5.8 mph - N/A   Clear
10:53 PM 16.0 °F - -0.9 °F 47% 30.38 in 10.0 mi Calm Calm - N/A   Clear
11:53 PM 14.0 °F 8.2 °F -0.0 °F 54% 30.39 in 10.0 mi WNW 3.5 mph - N/A   Clear